Theta_e
313 313 314 314 319 322 323 321 318 321 319 313 314 314 317 321 322 322 322 323 328 329 329 328 332 343 353 356 356 356 356 363 364 364 365 357 347 347 348 343 334 331 329 325 333 337 330 323 322 326 327 328 333 335 335 334 332 330 332 334 333 328 322 329 340 341 341 342 343 344 343 344 343 343 343 343 342 341 342 342 342 340 339 338 336 336 338 340 339 337 336 335 331 327 323 320 315
312 313 313 315 319 321 323 321 317 317 315 311 313 315 317 322 322 321 322 326 328 328 329 326 334 349 353 350 352 355 354 357 357 358 355 347 345 346 343 338 332 332 329 324 329 332 330 327 323 325 328 330 333 334 333 332 331 332 334 334 330 324 324 334 339 340 341 342 344 345 344 344 343 343 343 343 342 342 342 342 342 341 341 340 339 339 339 340 338 337 336 335 334 330 325 320 314
312 313 312 317 321 320 322 320 317 313 312 311 313 318 319 321 320 322 325 328 328 326 328 324 333 344 350 353 353 357 357 353 352 352 349 347 346 344 340 335 332 332 328 324 324 326 327 327 324 324 328 331 332 334 333 332 333 334 333 330 325 323 329 336 338 339 341 342 344 344 344 344 343 343 343 342 342 343 343 342 342 342 341 340 340 339 338 337 336 336 336 335 334 332 327 319 312
312 313 313 317 321 320 321 319 319 313 311 311 312 319 321 321 321 322 325 329 328 327 327 325 340 346 350 356 352 354 356 350 352 351 350 350 346 344 340 334 332 330 328 324 322 323 325 326 325 324 328 330 331 332 331 331 332 331 328 325 322 326 333 336 338 339 341 342 343 343 344 343 343 343 343 343 342 342 342 342 342 341 341 341 340 339 337 336 336 336 336 336 335 333 330 320 312
312 315 316 317 320 320 319 318 319 314 312 313 312 318 321 321 321 321 323 328 325 326 325 323 342 349 349 352 348 352 354 349 350 351 351 349 346 344 337 333 333 334 331 325 321 321 325 327 325 325 327 328 329 329 329 329 328 326 324 321 322 329 335 337 337 339 341 343 343 343 343 343 343 343 343 343 342 342 341 342 342 342 341 339 338 336 334 334 336 334 334 335 333 333 330 320 314
314 317 320 318 318 319 317 315 315 313 315 317 315 318 321 320 321 321 321 324 323 325 323 330 344 349 350 347 345 350 351 349 350 351 351 347 346 342 337 336 338 339 334 325 322 320 327 330 328 327 326 326 327 327 327 326 324 323 321 320 325 332 336 337 338 341 342 343 343 343 343 343 343 343 343 342 342 342 342 342 341 341 340 338 336 334 330 330 331 331 331 331 330 329 326 320 317
316 319 320 319 318 318 318 314 313 313 316 319 317 318 320 319 321 320 321 321 323 323 322 338 346 350 352 348 348 350 348 351 351 351 350 347 346 343 341 341 343 342 333 326 322 321 328 331 330 331 329 328 327 327 325 323 322 320 321 323 329 335 337 337 339 342 343 343 343 343 343 343 343 343 343 342 342 341 342 341 341 341 340 339 337 333 329 328 329 330 330 328 329 327 323 320 320
316 318 319 318 318 318 317 315 314 315 316 318 318 319 320 320 321 319 322 320 322 324 321 336 345 352 351 349 354 353 349 352 352 351 349 347 346 344 344 344 344 341 333 326 325 327 332 332 333 336 336 334 331 326 323 321 321 321 324 328 332 336 338 339 341 343 343 343 343 343 343 343 342 343 342 343 343 342 341 341 341 340 340 339 336 331 327 327 329 330 330 329 329 327 323 320 321
316 317 318 316 317 317 315 315 315 317 318 318 318 319 322 320 321 320 321 320 321 322 320 331 343 352 351 352 357 355 352 353 352 351 349 348 346 345 345 344 343 339 332 328 329 330 332 333 335 339 340 339 334 325 323 321 322 324 328 331 333 336 339 341 342 343 344 343 343 342 343 342 342 341 340 339 338 336 337 337 338 339 338 335 333 329 326 327 329 331 331 329 329 327 322 321 324
317 317 318 316 315 313 311 313 314 317 318 319 319 319 321 320 321 321 321 321 321 321 321 335 345 351 353 355 358 356 354 353 352 351 349 349 347 346 345 344 343 339 332 330 330 329 333 337 338 339 340 341 334 324 324 325 328 332 334 335 336 338 340 341 342 343 343 343 342 342 342 341 340 337 332 330 328 325 325 324 328 333 334 331 327 325 326 326 328 331 331 330 330 329 322 320 326
319 317 316 315 314 311 310 311 313 316 317 318 319 319 321 320 321 320 320 321 320 321 320 336 348 351 353 355 357 355 354 353 352 351 350 350 348 347 345 344 344 339 334 331 328 330 337 339 339 339 339 340 335 327 327 332 338 340 340 341 341 342 342 342 343 343 343 343 342 342 341 340 337 331 327 325 323 321 319 318 318 322 327 327 322 319 324 326 328 331 330 330 330 329 323 318 324
319 317 316 314 313 312 311 311 312 316 317 317 318 319 321 319 320 320 321 320 320 322 318 333 348 352 355 357 357 354 353 353 353 351 350 349 347 346 345 344 343 338 335 330 329 333 337 339 339 339 339 340 338 332 332 338 343 343 343 343 343 343 342 343 343 343 343 342 341 341 339 337 333 329 328 325 322 321 319 317 316 316 319 322 319 315 321 325 328 331 331 330 330 329 325 319 321
318 318 316 314 314 313 312 312 313 317 316 317 318 319 320 319 320 319 321 320 321 321 319 341 350 353 357 356 357 356 355 354 352 351 349 348 347 346 345 344 341 337 335 332 331 333 335 338 339 339 339 339 338 334 335 341 344 343 343 343 343 343 343 343 343 342 342 341 340 338 336 333 332 331 329 325 323 321 318 316 313 313 314 316 315 314 320 325 328 331 331 331 330 329 327 321 319
317 317 316 315 315 314 313 312 313 314 313 317 318 319 320 318 320 320 322 320 321 320 322 346 352 356 358 357 359 358 356 353 351 351 349 348 347 346 345 343 340 337 336 334 332 332 334 337 339 339 338 338 337 334 336 342 343 343 344 343 343 343 343 343 342 342 340 340 338 335 333 332 332 331 330 328 324 321 318 315 312 311 312 313 313 313 320 325 327 330 331 331 331 330 328 324 319
316 316 317 316 315 314 314 313 314 312 313 318 318 320 321 320 321 320 322 319 321 321 324 346 351 358 359 357 360 357 354 353 351 350 349 349 348 347 346 343 340 339 339 338 336 335 335 336 338 338 338 338 337 335 338 342 343 343 343 343 343 342 342 342 341 341 340 339 337 334 334 333 333 332 332 330 325 321 320 316 311 311 311 312 312 313 320 325 327 329 330 331 331 330 328 326 321
316 315 316 315 314 312 313 315 315 313 315 318 318 321 320 320 321 320 323 320 323 322 323 342 348 355 357 355 357 353 352 353 351 350 349 349 348 347 346 343 341 342 341 340 339 339 339 338 337 337 338 339 337 338 339 342 343 342 343 342 342 342 342 341 341 340 339 339 337 336 335 335 335 334 333 330 326 323 322 319 314 311 311 312 311 312 320 324 326 328 330 330 331 330 329 327 323
316 316 316 314 313 312 314 316 315 314 316 319 319 321 320 319 321 320 323 321 323 326 333 344 347 351 353 353 353 352 353 352 351 350 349 350 349 348 346 344 343 343 342 341 341 341 340 339 337 337 338 338 338 339 339 342 342 342 342 342 342 342 341 341 340 340 339 339 338 337 336 336 336 336 335 333 330 326 324 322 317 312 310 311 311 313 319 323 326 327 328 329 330 330 329 328 325
316 316 315 312 313 314 315 316 316 316 317 318 320 321 321 319 320 321 323 325 323 329 345 353 353 352 352 353 353 353 352 350 351 349 349 350 349 348 347 346 345 344 343 343 342 341 340 338 338 338 338 338 338 337 339 341 342 342 342 341 341 341 341 341 340 339 339 338 337 338 338 338 339 339 339 337 333 329 325 322 320 315 313 312 310 313 317 321 325 326 327 328 328 329 329 329 327
317 317 315 313 314 315 316 317 316 317 317 318 321 322 321 320 321 322 322 326 326 335 352 358 356 355 353 352 353 352 352 350 350 348 348 349 348 348 347 346 345 344 344 343 343 341 339 340 340 339 337 337 337 337 339 341 341 341 341 341 341 341 341 341 340 339 338 337 338 340 341 340 342 340 340 340 335 331 326 323 325 324 321 318 315 315 317 318 320 323 325 325 326 326 329 332 329
318 317 316 314 316 316 316 317 316 317 318 318 321 322 322 322 321 321 322 324 326 339 355 360 357 356 354 352 353 351 351 350 349 349 348 348 348 348 347 347 346 345 345 344 343 341 340 341 341 340 338 337 337 338 339 340 340 340 340 340 341 341 341 340 339 338 336 338 340 341 341 341 341 340 342 342 336 334 329 326 330 331 328 327 327 329 327 324 320 319 322 323 323 322 329 335 335
318 318 317 316 316 315 316 317 317 318 318 318 320 322 321 321 321 321 322 321 327 337 350 360 358 356 354 352 352 352 351 350 350 349 349 348 348 347 347 346 346 346 345 345 344 342 343 343 342 341 338 337 337 338 339 339 339 339 340 340 341 340 340 340 341 340 339 340 341 339 340 340 340 339 340 340 337 336 335 334 335 335 333 332 333 336 335 334 330 328 328 327 326 324 327 333 335
317 318 317 317 317 316 316 317 318 317 317 318 318 320 320 321 322 320 322 325 335 339 342 355 356 355 354 353 352 351 352 351 351 350 349 349 348 348 347 344 345 346 346 346 345 343 344 343 342 341 339 339 337 336 338 339 339 338 339 340 340 340 340 342 343 342 341 341 340 339 339 340 340 338 337 338 338 339 338 337 338 337 338 336 335 336 337 337 336 335 333 331 330 329 329 331 332
316 317 317 317 317 316 317 317 318 317 317 318 317 320 319 322 319 320 332 337 343 347 348 355 356 351 350 352 353 352 353 353 352 349 346 347 346 345 343 342 343 344 344 344 344 343 344 343 341 341 340 338 335 336 338 340 340 338 338 340 340 340 341 342 343 342 341 340 340 340 338 338 339 339 339 340 340 340 339 337 339 339 339 339 338 337 337 338 337 335 335 334 332 332 332 332 331
315 315 316 318 317 317 317 317 317 317 317 318 318 319 318 321 318 323 339 343 345 346 350 353 354 347 343 347 348 349 351 349 346 342 339 340 341 340 339 339 339 339 340 341 342 341 342 341 341 342 338 335 335 336 338 339 340 339 338 340 339 340 341 340 340 340 340 339 339 338 337 338 339 338 339 339 339 339 338 337 339 340 339 339 340 339 337 338 338 337 337 337 335 335 335 334 333
315 314 316 318 317 318 317 317 317 316 318 319 319 319 318 319 316 330 343 345 343 343 345 347 348 344 342 342 340 340 341 340 339 337 336 338 339 339 339 338 338 338 338 339 340 340 340 340 341 341 337 336 337 336 336 337 339 339 339 340 339 339 339 339 339 339 339 338 338 337 337 339 338 337 338 338 338 338 338 338 339 339 339 338 339 338 336 337 338 337 337 337 337 337 336 335 333
315 315 315 316 317 318 316 317 317 316 318 319 320 318 319 318 319 338 346 344 343 343 345 346 346 344 343 342 341 340 339 339 338 336 337 338 339 339 339 338 337 337 337 337 337 339 340 339 339 340 338 337 336 335 335 336 338 339 339 339 339 338 338 339 339 338 338 337 337 336 337 339 338 337 339 339 339 339 339 339 338 339 338 338 338 338 337 337 337 336 337 338 337 337 337 336 335
315 315 316 316 317 317 317 317 316 317 318 319 320 317 320 318 317 340 347 344 343 344 346 347 346 344 342 340 342 343 341 340 338 337 338 338 338 338 338 337 336 337 337 337 337 337 337 337 337 338 337 336 335 335 336 336 337 337 337 338 337 337 337 338 338 337 336 336 336 335 337 339 339 339 340 340 339 339 339 338 338 338 338 338 338 338 338 338 338 338 338 338 337 337 337 337 337
314 315 315 316 317 317 317 317 316 317 317 319 320 317 321 315 318 342 349 345 344 346 346 346 344 342 341 340 341 341 339 338 337 338 338 338 339 339 338 338 337 337 337 336 337 336 336 336 336 336 335 336 336 336 336 336 335 336 336 337 337 337 336 335 336 336 336 336 336 337 338 339 339 340 340 339 339 339 338 337 338 338 338 339 339 339 340 340 339 339 338 338 338 337 337 337 337
314 314 314 315 316 316 316 316 317 317 319 321 318 318 316 316 333 346 348 345 345 347 347 345 343 341 340 340 340 339 338 338 338 338 338 338 338 338 338 337 338 337 337 336 336 336 336 336 336 335 336 337 337 336 336 336 336 337 337 336 337 337 336 336 336 337 337 337 338 339 339 339 339 340 339 339 340 339 338 338 338 338 339 340 340 340 341 340 339 339 338 338 338 338 339 338 337
313 313 313 314 314 315 316 316 317 317 320 320 316 317 313 323 344 346 345 345 346 347 346 344 342 341 340 339 338 338 338 338 339 338 338 338 337 338 337 337 338 337 337 337 336 336 336 336 337 337 338 338 337 336 336 337 337 337 337 336 338 339 338 337 338 338 339 339 339 339 339 339 339 339 339 339 340 339 338 339 339 339 340 340 341 341 340 340 339 338 338 338 339 339 339 339 338
313 313 312 313 312 313 316 316 316 316 319 320 318 314 311 331 346 345 344 345 347 346 345 343 342 341 339 339 338 338 339 338 338 337 337 337 337 338 337 337 337 337 337 337 337 337 337 338 339 339 338 338 337 337 337 337 338 338 338 338 339 339 338 339 339 339 339 339 339 339 339 339 340 340 339 339 340 339 339 339 339 340 340 340 341 341 340 340 340 339 339 339 339 339 339 339 339
313 311 310 312 311 313 317 317 317 316 317 320 317 312 322 344 346 345 346 345 346 346 344 343 341 340 339 339 338 338 339 338 337 336 336 337 338 338 337 337 338 338 337 337 337 338 339 339 339 339 338 337 337 337 337 337 338 339 338 338 339 338 338 339 340 340 339 339 338 339 339 339 340 340 339 340 340 339 339 339 340 341 341 341 341 341 341 340 339 339 339 339 339 339 339 339 338
313 311 310 311 311 312 315 317 317 317 317 319 316 313 334 353 348 347 349 346 345 345 344 343 340 340 340 338 337 339 339 338 337 336 336 337 338 338 337 338 338 338 337 337 338 338 339 338 338 338 338 337 338 337 338 338 338 339 338 338 339 340 340 340 340 340 339 339 339 339 340 340 340 339 339 340 339 339 339 339 339 340 341 341 341 341 341 339 339 339 339 339 339 339 339 339 338
312 312 313 312 312 312 312 315 316 318 316 318 318 313 332 349 349 349 349 347 346 345 345 343 341 340 339 338 338 339 339 338 338 337 336 337 337 337 338 338 338 338 337 337 338 338 339 338 338 338 338 338 338 338 338 338 339 340 339 338 339 340 340 340 340 339 339 338 339 339 339 339 338 337 338 338 338 337 338 338 338 338 339 340 340 340 338 338 339 338 338 337 338 339 338 338 338
311 312 314 312 313 313 312 313 314 317 316 317 317 314 332 348 348 348 346 346 347 346 345 343 342 341 339 339 339 339 339 338 338 337 336 337 337 337 337 338 337 337 337 337 338 338 339 338 338 338 338 339 339 339 339 339 340 340 339 339 339 339 338 339 339 338 338 337 338 339 338 337 337 337 337 337 337 337 337 337 338 337 338 338 338 338 337 337 337 336 336 337 337 338 337 337 337
312 313 314 312 311 312 313 315 315 316 315 316 315 315 336 349 345 347 346 346 347 345 346 344 342 341 339 340 340 341 340 339 338 337 337 338 338 337 336 337 337 337 337 337 338 338 338 338 338 338 338 338 339 339 339 340 339 339 339 339 338 338 338 337 338 338 338 337 338 338 337 337 337 337 337 337 337 337 337 337 338 338 338 337 337 337 337 337 336 335 336 336 336 336 336 336 336
313 312 312 311 311 311 314 316 315 316 314 316 315 317 338 348 344 349 346 344 347 345 345 345 343 341 340 341 342 341 339 338 338 337 338 339 338 337 337 337 337 337 337 337 337 337 337 338 339 339 338 338 339 338 339 339 339 338 338 338 337 337 337 337 338 338 337 337 338 338 337 337 336 336 337 337 337 337 337 337 337 337 337 336 336 337 337 336 335 334 335 335 335 335 335 335 336
313 312 311 311 311 311 315 316 315 317 314 315 315 316 335 346 345 348 345 345 347 345 345 345 343 342 342 343 343 341 339 337 337 338 339 340 339 337 337 337 337 337 336 336 337 337 338 338 338 339 338 339 339 338 338 339 338 338 337 337 337 338 338 337 338 338 337 337 337 336 336 335 335 335 336 336 336 337 336 336 335 335 335 335 336 335 334 333 333 333 333 333 333 333 334 334 333
313 313 311 311 312 312 315 315 316 317 314 316 314 314 331 346 346 344 344 345 346 344 344 344 343 343 344 344 342 340 339 337 337 338 339 339 339 338 337 337 337 336 336 336 337 337 338 338 338 338 338 338 339 338 338 338 337 338 338 337 337 337 337 336 337 337 337 336 335 335 334 333 334 334 334 335 335 335 335 334 333 333 333 334 334 333 332 331 331 331 331 331 331 331 331 332 331
313 312 311 311 312 312 311 313 315 316 316 317 313 321 336 345 345 344 343 344 346 345 345 344 343 343 344 342 340 339 339 338 338 337 338 338 338 338 336 336 336 336 336 336 337 338 338 337 337 338 339 338 338 338 337 336 336 337 338 337 337 336 336 336 336 336 335 334 334 333 332 332 332 332 332 333 333 333 333 332 331 331 331 331 331 330 329 329 329 329 329 328 329 329 329 329 329
313 312 311 311 312 312 311 313 315 315 318 317 317 330 342 343 343 345 344 346 347 344 344 344 344 344 343 341 338 339 339 338 338 337 337 338 337 337 336 335 336 335 335 336 336 337 337 337 338 338 338 338 337 337 336 335 335 335 336 336 335 335 335 335 335 335 334 333 332 332 332 331 330 330 330 330 330 330 330 330 329 328 328 328 328 327 326 326 326 326 326 326 326 327 328 327 327
312 313 312 312 312 313 313 314 315 312 314 316 317 328 339 341 339 342 342 346 347 344 343 343 343 343 341 341 340 339 339 337 337 337 337 337 336 336 336 335 336 335 335 335 336 336 336 337 338 338 338 337 336 335 335 336 335 335 335 335 334 333 333 334 334 334 333 332 331 331 330 329 329 329 328 328 327 326 326 327 327 326 325 325 324 324 324 324 324 324 324 324 324 324 325 326 326
311 313 313 313 313 313 313 312 313 312 313 317 315 324 337 342 337 339 341 344 346 344 343 341 340 338 338 341 341 339 339 338 337 337 336 336 336 336 336 335 336 336 335 335 336 336 336 337 337 337 337 337 336 336 336 336 336 336 336 335 334 333 333 333 334 334 332 331 330 329 328 328 327 327 326 326 325 324 324 324 324 324 323 322 322 321 322 322 322 322 322 322 322 322 323 324 324
311 313 313 314 313 312 313 311 313 315 316 318 314 322 337 342 338 338 340 341 345 345 342 341 337 335 337 341 341 340 339 338 337 336 335 335 336 336 336 336 337 337 336 335 335 335 336 336 336 336 337 337 336 336 335 336 336 335 335 334 334 334 333 334 334 333 332 331 329 328 327 326 325 325 324 324 323 323 322 321 321 322 321 321 320 320 320 321 321 321 320 320 320 321 321 321 321
311 313 313 313 314 313 315 313 313 317 315 313 313 315 325 335 339 339 339 340 343 345 343 341 337 334 337 339 339 340 338 337 336 336 336 336 337 337 336 337 337 336 336 334 334 334 334 334 334 335 335 336 335 334 334 334 334 333 333 333 333 333 333 333 332 332 331 329 327 326 324 324 323 322 322 322 322 321 320 320 319 319 319 319 319 318 319 320 320 319 319 319 319 319 319 319 318
312 314 314 313 314 314 315 315 314 315 316 313 314 310 313 330 341 338 340 341 340 343 342 339 336 335 336 337 339 339 337 337 336 336 337 336 336 337 336 336 335 335 334 334 333 333 333 333 332 333 333 334 334 333 333 333 333 333 333 333 333 333 332 332 331 330 329 327 325 323 322 321 320 320 320 320 320 319 318 318 317 317 317 317 317 317 318 318 318 317 317 317 317 317 318 317 316
313 313 313 312 315 316 316 319 315 314 318 316 313 311 311 327 341 338 339 342 338 340 341 338 336 336 335 336 339 339 337 337 336 336 336 336 335 335 335 334 334 334 333 333 333 332 332 331 331 331 331 332 333 333 333 333 333 333 332 333 332 332 331 330 329 328 327 326 323 321 320 319 319 318 318 317 317 317 316 316 316 316 316 316 316 316 316 316 316 315 315 315 315 316 316 315 315
314 313 312 312 314 314 313 315 314 314 321 318 313 315 309 319 337 340 338 340 337 339 340 339 337 336 335 337 339 338 337 337 336 336 335 334 335 334 334 333 332 332 332 331 331 330 330 329 329 329 330 331 332 332 332 332 332 332 332 331 331 330 329 328 327 326 326 325 322 320 319 318 317 316 315 315 315 315 315 315 315 314 314 314 315 315 315 315 314 312 313 314 314 314 314 314 313
313 312 312 312 312 313 312 314 317 318 321 318 312 316 311 314 332 340 338 338 337 338 339 338 337 335 335 337 339 339 337 337 336 335 335 334 334 333 333 332 332 332 331 330 330 329 328 328 328 327 327 328 329 330 330 330 330 330 329 329 328 328 327 325 324 323 323 322 320 318 318 317 316 315 315 315 315 314 314 313 313 313 313 313 313 313 313 314 312 311 312 313 313 312 312 312 312
312 310 311 315 313 313 315 317 321 321 319 317 313 317 315 314 325 336 338 337 336 337 337 337 336 336 336 337 339 339 337 337 336 335 335 333 333 333 332 332 331 331 330 330 329 327 326 326 326 326 325 325 326 327 327 327 326 326 326 326 325 324 324 323 322 321 320 319 318 317 316 315 314 314 314 314 314 313 312 311 311 311 311 311 311 312 312 313 312 310 312 312 312 311 311 311 311
312 311 313 315 313 317 319 318 322 322 317 315 314 316 315 317 328 336 336 334 335 336 335 336 336 336 336 337 338 338 337 336 335 334 334 333 333 332 331 331 330 330 330 329 327 326 325 324 324 324 323 323 324 324 324 324 323 323 323 323 322 322 321 320 320 319 319 318 317 316 315 314 314 314 314 313 313 311 310 309 309 310 310 309 310 310 311 311 310 310 310 311 311 310 310 310 310
313 312 312 313 316 325 322 318 324 324 318 317 317 318 321 326 335 335 332 333 334 335 336 337 337 336 337 338 339 338 337 336 335 334 333 333 332 331 331 330 330 329 328 327 326 325 324 323 323 322 322 322 322 322 322 321 321 321 321 320 320 319 319 319 318 318 317 317 316 315 314 313 314 313 313 312 311 309 308 308 308 308 308 308 309 309 310 310 309 309 309 309 309 309 309 308 308
314 312 311 313 317 323 318 316 323 323 321 321 318 322 327 331 339 335 330 335 335 336 339 338 338 338 339 339 339 337 337 335 334 334 333 332 331 330 330 329 329 328 327 326 325 324 323 322 321 321 321 321 320 320 320 319 319 319 319 318 318 318 318 318 317 316 316 315 314 314 313 313 313 312 311 310 309 308 307 307 307 307 307 307 308 308 309 309 308 308 308 308 308 308 307 307 307
314 311 311 314 315 317 317 318 320 320 322 320 316 323 328 331 341 341 334 337 339 340 340 339 338 339 339 340 339 337 336 335 334 333 332 331 330 330 329 329 328 327 326 326 324 323 322 321 320 320 319 319 319 319 318 318 318 318 318 317 317 317 317 316 315 315 314 314 313 313 313 313 312 311 309 308 308 307 306 306 306 306 306 306 307 308 308 307 307 307 307 307 307 307 306 306 306
312 313 313 315 317 317 316 319 320 320 320 316 314 323 328 328 334 337 334 338 343 342 340 339 339 339 339 340 338 337 335 335 334 333 331 331 330 329 329 328 328 327 326 324 323 322 321 320 319 319 318 318 317 317 317 317 317 317 316 316 316 315 315 315 314 313 313 313 313 313 312 311 310 309 308 307 306 306 305 305 304 304 305 306 306 307 307 307 306 306 307 306 306 306 306 305 305
311 313 314 315 318 319 317 319 321 320 321 319 316 319 324 326 329 334 336 340 343 343 341 340 339 339 339 339 338 336 335 335 334 332 331 330 329 329 328 328 327 326 325 323 322 321 320 319 318 318 317 317 316 316 316 316 315 315 315 315 315 314 314 313 313 312 312 312 312 312 311 310 308 308 307 306 305 304 304 303 303 303 303 304 306 307 307 306 306 306 306 305 305 305 305 304 304
310 312 313 312 314 316 318 318 316 317 321 322 320 318 320 325 331 336 338 340 342 343 342 341 340 339 339 338 338 336 335 334 333 332 331 329 329 328 327 327 326 325 323 322 321 320 319 318 317 317 316 316 316 316 315 315 314 314 314 314 314 314 313 313 312 312 312 311 311 310 310 309 308 307 306 305 304 303 302 302 301 302 302 303 305 306 306 306 306 305 305 305 305 304 304 303 303
311 313 313 314 315 314 315 317 314 313 319 321 323 325 327 334 337 336 338 340 341 342 341 342 341 339 339 338 337 336 335 334 332 331 330 328 328 327 327 326 325 324 322 321 320 319 318 317 317 316 315 315 314 315 314 314 314 314 314 313 313 313 313 312 312 311 311 310 310 309 308 308 307 306 305 304 303 302 301 300 299 299 300 302 304 306 306 306 305 305 305 305 304 304 303 303 302
Wind_Speed
14 16 15 15 16 17 14 3 1 3 1 2 4 3 6 8 8 10 12 9 3 2 4 5 7 10 11 12 15 13 6 2 3 4 2 6 21 28 30 33 34 33 31 28 24 22 20 21 21 21 20 20 22 22 22 21 21 19 18 17 17 18 18 19 18 17 17 16 15 14 14 14 15 15 16 16 16 16 16 15 15 14 14 14 14 15 14 13 13 12 12 12 12 12 11 10 10
13 14 13 14 14 7 4 1 1 4 2 4 4 4 8 9 8 12 10 4 4 2 5 6 11 17 18 16 15 13 9 4 6 6 6 20 28 26 32 34 34 33 31 29 26 24 22 21 22 22 21 21 22 22 22 21 21 19 18 18 18 19 19 19 18 17 16 15 14 14 14 14 14 15 15 16 16 16 15 15 14 14 13 14 14 14 13 12 11 11 11 11 11 11 11 11 11
12 13 13 13 8 1 1 2 1 3 3 4 4 5 8 9 11 11 4 2 4 4 6 8 10 11 13 11 8 8 5 3 10 10 10 23 21 20 32 34 34 33 31 30 27 25 24 22 22 22 21 21 21 22 22 21 20 19 19 19 19 20 20 19 18 18 16 14 14 14 14 14 14 14 15 15 16 16 15 14 13 13 13 13 13 13 12 11 11 11 10 10 10 10 10 11 13
11 10 12 10 4 0 1 0 2 3 4 4 4 6 9 11 14 9 1 2 2 5 3 6 8 4 11 13 7 7 7 5 10 11 9 17 22 26 33 33 33 31 30 29 26 26 24 24 23 22 22 21 22 22 22 22 21 20 20 20 20 20 20 20 18 17 15 15 14 14 14 14 15 15 14 14 15 15 15 14 13 12 12 12 12 11 10 10 10 10 9 9 8 9 9 11 14
9 8 10 4 1 1 1 1 1 3 4 4 4 6 11 12 14 12 4 2 1 4 3 5 5 4 10 10 4 5 7 8 9 11 13 21 31 33 33 33 32 30 29 28 27 26 25 24 23 22 22 22 22 23 23 23 22 21 21 20 20 20 20 20 19 17 16 15 14 14 14 14 15 14 14 14 14 15 14 13 12 11 11 11 11 10 10 10 9 8 8 8 8 8 9 11 15
8 10 10 3 1 2 0 2 2 5 6 4 5 7 11 14 15 16 14 6 2 2 4 5 7 7 7 5 4 4 9 11 9 12 20 28 35 34 34 33 30 28 28 27 26 26 25 24 23 23 23 23 23 23 23 23 23 22 21 21 21 21 20 19 18 16 15 14 14 14 14 14 14 14 14 14 13 13 13 12 11 10 10 10 9 9 10 11 10 9 8 8 9 9 10 12 15
6 7 5 1 2 1 2 4 5 6 6 7 8 9 12 16 16 16 19 11 2 0 4 6 11 11 5 4 4 3 12 14 11 16 28 34 35 34 33 31 30 29 28 27 27 26 24 23 24 23 23 23 23 23 23 24 23 22 21 22 21 21 20 19 17 16 15 14 14 15 15 15 14 14 13 13 12 12 11 10 10 10 9 9 8 8 10 11 10 9 9 9 10 11 11 13 15
6 3 1 2 1 1 3 5 5 5 6 8 9 12 14 15 16 14 18 15 3 2 2 8 13 11 5 6 4 4 15 19 19 26 34 35 34 33 31 32 32 29 27 28 26 25 24 24 23 21 21 21 22 23 24 24 24 23 23 22 21 20 18 17 16 15 15 15 15 15 15 14 14 13 12 12 11 10 10 9 9 9 8 7 6 8 10 11 10 9 9 10 11 11 12 13 15
7 3 1 0 2 3 3 4 5 6 7 9 10 12 15 15 15 14 19 14 3 1 2 8 12 10 6 9 8 5 14 24 28 33 34 33 32 31 32 34 34 31 29 27 26 25 24 24 23 20 20 20 21 24 25 25 24 24 23 22 21 19 17 16 16 15 15 16 16 15 15 14 13 12 11 10 9 8 7 7 7 7 7 6 6 8 10 10 9 9 9 10 11 12 12 13 15
4 4 2 1 3 4 4 5 5 6 8 10 12 13 15 14 14 16 18 11 1 1 4 11 13 12 11 9 6 4 14 27 32 31 31 30 30 31 33 33 33 32 30 27 27 27 25 22 21 21 20 20 21 25 25 24 24 23 22 21 20 18 16 16 16 15 16 16 16 15 14 12 11 11 10 8 7 6 5 5 5 6 6 5 6 8 9 9 9 9 9 10 11 11 12 13 14
1 3 2 2 3 5 5 5 7 7 9 10 12 14 16 14 15 18 10 6 3 1 2 10 12 12 12 7 3 7 20 27 30 29 27 27 30 34 33 32 31 31 31 29 28 27 24 21 20 20 20 20 21 24 24 23 22 20 20 19 18 17 16 16 16 16 16 16 15 14 12 11 10 9 8 7 6 5 5 5 5 5 5 6 6 8 10 9 9 9 9 9 10 11 11 12 14
2 3 3 4 4 5 6 6 7 8 10 10 12 14 13 14 17 15 6 4 1 3 0 6 10 10 10 5 2 10 19 22 28 29 27 30 33 34 32 31 29 30 31 29 28 27 25 22 20 19 20 21 21 22 23 23 21 19 19 18 17 17 16 17 17 16 15 15 14 12 11 10 10 8 7 6 6 5 5 4 4 5 5 6 7 9 10 10 9 9 9 9 9 10 10 11 13
3 4 4 4 4 5 6 6 7 8 9 8 11 13 13 14 15 9 8 5 5 3 2 11 13 9 8 4 3 7 12 20 28 28 30 33 32 32 30 29 29 30 30 29 29 27 26 24 22 20 19 21 21 21 22 22 21 19 19 18 18 17 17 17 16 16 15 14 13 11 11 10 9 7 7 6 5 5 4 4 3 4 5 7 8 10 11 10 10 9 9 8 8 8 9 9 11
5 3 4 3 3 6 6 6 6 7 8 7 10 12 9 7 5 5 8 5 6 3 6 17 15 12 8 5 4 5 10 22 28 29 32 33 30 30 29 28 29 29 29 28 29 28 27 25 23 21 19 20 20 21 22 21 20 19 18 18 18 18 17 17 16 15 14 13 12 11 11 10 8 7 6 5 5 5 5 4 4 3 5 7 9 11 12 11 9 9 8 8 7 7 7 8 9
6 2 3 4 3 5 6 7 8 8 7 9 11 7 3 1 2 5 5 4 2 2 6 13 13 10 11 11 8 8 14 27 29 30 33 31 30 29 27 28 28 27 27 28 28 27 27 25 23 22 21 21 21 21 21 20 19 18 18 18 18 17 17 16 15 15 13 12 12 11 10 9 7 6 5 5 5 7 7 6 5 4 4 6 9 11 12 11 10 9 8 7 7 6 6 7 8
5 3 3 4 5 5 5 6 8 8 6 10 11 5 2 1 4 2 2 4 3 2 5 6 8 6 15 14 13 19 24 31 31 31 33 31 30 29 28 27 27 25 25 26 25 25 25 24 23 22 22 21 21 21 21 20 18 18 17 17 17 17 16 16 15 14 13 12 11 11 9 8 7 5 4 4 6 8 9 9 8 6 5 6 8 11 12 11 9 8 7 7 6 5 5 5 7
4 4 5 5 6 6 5 6 6 6 7 9 8 5 4 3 4 3 3 6 2 2 7 4 3 7 14 10 20 33 31 32 32 30 30 29 28 27 26 25 24 23 23 24 23 23 23 24 23 22 21 19 20 20 20 20 17 17 17 16 16 16 16 15 15 14 13 12 11 10 8 7 6 5 5 5 6 8 8 9 10 9 7 6 7 9 10 10 9 7 6 5 5 4 3 4 6
5 4 6 6 6 6 6 7 8 6 9 8 4 3 2 2 2 3 3 5 3 4 9 8 9 10 14 18 28 34 32 33 31 29 27 25 24 22 22 22 23 23 23 23 22 23 23 23 23 21 20 18 19 20 21 20 17 17 17 16 16 16 15 15 15 14 13 12 11 9 8 7 5 5 5 5 6 7 7 8 10 10 10 8 7 7 7 7 7 6 5 3 3 2 2 2 4
6 4 6 7 6 7 7 9 11 8 11 9 2 4 3 4 4 3 2 2 5 6 8 10 14 14 17 23 27 28 29 30 27 26 24 22 22 20 19 20 22 23 23 24 25 24 23 24 21 21 20 19 19 21 22 20 18 18 17 16 16 16 15 14 13 12 12 12 11 9 8 7 5 4 4 4 5 6 6 7 9 9 10 10 9 8 6 5 4 4 3 2 1 1 0 2 3
6 5 6 7 7 8 10 12 13 10 13 10 2 2 3 4 5 4 4 4 1 8 9 10 15 15 17 18 20 24 24 24 24 24 22 22 23 22 20 20 21 23 23 25 27 25 25 25 23 22 21 20 21 22 22 19 18 17 16 16 15 16 14 13 12 11 11 11 10 9 8 7 5 4 4 2 2 5 5 6 7 7 8 9 9 8 7 5 3 2 1 0 1 2 2 1 3
5 7 7 6 8 10 13 14 14 14 15 9 2 3 2 2 4 3 3 5 4 3 9 14 19 19 19 17 16 20 20 19 20 20 20 20 22 23 22 21 21 23 25 27 28 28 27 27 25 23 22 22 22 21 21 19 17 16 15 15 15 15 14 13 11 11 11 9 9 9 8 7 5 3 5 4 0 4 4 4 4 4 5 6 6 5 5 5 4 3 2 2 3 2 2 3 4
5 9 10 8 8 9 11 14 16 16 13 10 5 6 5 3 2 3 2 2 2 3 4 13 18 19 21 21 18 17 17 16 17 17 17 18 21 22 22 21 20 23 27 26 27 27 28 29 28 25 23 22 20 21 21 19 16 15 15 14 14 14 13 13 11 11 10 8 9 9 7 6 5 3 4 4 1 0 1 3 3 2 3 3 2 2 3 2 2 2 3 3 3 4 5 7 8
7 8 9 11 12 10 10 13 14 12 10 9 5 2 3 5 2 1 8 5 2 4 8 14 12 11 9 13 18 17 17 15 14 11 8 9 10 13 15 13 14 19 23 23 24 25 26 28 27 25 22 20 21 22 21 20 17 13 13 13 13 13 12 12 11 12 11 8 7 8 7 6 7 5 4 4 4 3 2 2 3 3 3 4 4 4 5 5 4 4 5 5 5 6 8 10 12
11 9 9 10 12 13 15 15 13 12 11 6 2 5 5 5 2 4 10 6 6 10 15 18 14 14 10 7 6 6 10 11 13 18 22 21 21 20 14 6 6 12 16 18 20 22 24 24 24 24 22 21 21 21 20 20 18 13 13 13 13 13 13 12 12 13 11 9 8 8 7 6 7 8 7 6 6 5 4 3 2 2 2 2 3 4 5 3 4 4 4 5 5 7 8 10 12
13 11 10 9 10 12 15 16 14 13 12 6 3 5 4 1 2 6 8 8 12 13 15 16 14 17 14 11 11 10 11 14 17 23 26 23 21 20 17 13 11 12 11 11 16 22 22 22 21 21 22 22 20 19 19 19 18 15 14 15 13 13 14 13 13 13 12 10 8 9 7 5 8 9 8 6 5 5 5 5 4 3 2 1 1 3 4 4 4 5 6 6 7 7 9 10 11
11 13 11 10 10 11 12 13 14 14 9 2 2 3 4 5 2 6 6 9 15 15 15 15 14 14 12 14 14 10 9 11 14 18 20 19 17 17 20 22 18 16 14 12 16 19 18 18 19 19 22 22 19 19 17 16 18 16 16 16 12 13 14 13 13 13 13 10 8 10 7 5 8 8 6 5 5 4 4 5 5 5 4 4 4 4 5 6 7 8 9 9 9 10 10 11 12
9 13 13 12 11 11 12 12 12 12 7 7 4 1 3 5 3 2 4 8 14 16 14 13 14 12 10 9 9 10 10 10 16 20 19 19 18 19 24 27 23 18 18 17 16 16 16 17 18 19 21 21 18 16 14 16 17 16 17 15 10 13 16 14 15 14 12 10 9 10 7 5 6 6 5 5 4 4 4 4 4 5 4 3 4 5 6 8 8 9 10 10 11 11 11 12 13
10 13 13 14 13 10 13 14 11 9 6 9 8 3 4 4 3 5 6 6 13 16 12 13 14 10 9 9 6 6 8 10 17 20 19 18 18 21 24 27 26 23 24 23 19 17 15 14 14 15 17 17 15 14 15 16 15 14 15 13 11 14 15 14 14 12 10 9 9 9 7 6 5 4 4 4 4 3 4 4 4 4 2 2 3 5 7 9 9 9 10 10 10 11 12 13 13
12 12 10 13 15 13 15 14 11 7 3 6 7 2 5 3 4 9 9 5 11 16 12 12 12 10 9 8 7 6 8 13 15 15 19 24 24 24 25 24 26 25 27 27 23 21 17 12 12 13 13 14 15 17 16 15 14 14 13 11 9 10 10 10 10 10 9 8 8 8 7 6 5 3 3 3 3 3 3 3 3 3 2 2 3 5 7 10 10 10 10 10 10 11 11 12 13
11 11 7 8 10 11 14 13 11 7 3 5 7 2 6 3 9 10 9 8 12 13 10 11 10 9 8 8 8 6 7 11 13 16 19 26 29 29 27 24 27 30 29 28 27 27 22 15 12 13 12 13 16 18 17 15 15 15 15 12 9 8 8 7 8 8 8 7 6 6 5 4 3 2 2 3 3 3 3 3 2 1 3 3 4 6 8 9 8 9 10 10 11 11 11 12 13
8 9 6 5 5 5 10 11 10 8 5 7 7 4 5 5 12 10 8 10 14 12 8 9 9 8 7 8 8 7 6 6 11 18 22 28 32 31 30 30 33 33 31 30 28 26 22 17 13 12 12 12 15 16 17 16 15 15 16 14 11 10 9 7 7 7 6 5 6 6 4 3 2 1 2 3 3 3 3 3 1 2 3 5 6 6 7 7 7 8 8 9 10 10 11 11 11
6 7 6 5 5 3 6 9 11 8 6 9 8 4 3 7 12 12 8 7 12 13 8 8 9 9 8 8 7 7 7 7 9 13 19 28 32 32 33 35 35 35 34 32 28 25 22 18 15 13 11 11 13 13 14 16 15 15 15 15 12 12 11 8 7 7 6 5 6 5 4 3 2 1 1 2 2 3 3 3 3 4 3 4 6 5 5 5 6 6 6 8 9 9 10 11 11
5 6 6 5 5 5 4 7 12 12 7 8 9 5 3 6 10 12 9 8 11 11 9 9 8 9 8 7 7 7 7 7 9 11 14 19 26 32 36 36 35 36 35 34 31 30 27 23 21 18 14 13 12 12 13 15 15 15 15 14 11 11 10 9 8 7 5 5 5 5 3 1 0 1 2 1 1 2 3 3 3 3 2 3 5 5 5 5 6 6 6 7 8 9 11 11 12
5 4 5 5 6 6 4 5 8 13 10 8 11 7 4 8 10 11 10 10 11 11 10 9 8 8 7 7 7 7 8 8 7 10 11 12 19 28 34 35 34 35 33 31 31 31 30 27 25 21 18 15 13 13 14 15 16 15 14 14 11 11 10 8 8 6 5 5 4 3 2 3 3 3 3 1 1 2 2 3 2 2 3 4 5 5 4 5 6 7 8 7 7 9 11 12 12
5 4 4 4 5 6 8 7 6 13 15 11 11 8 7 10 10 11 11 10 11 11 10 9 9 9 8 8 7 7 9 8 8 10 11 12 16 21 27 31 33 33 31 28 27 28 27 26 25 22 20 18 16 15 15 15 17 15 14 13 11 12 11 9 7 6 6 5 4 5 6 5 4 4 4 4 3 3 3 5 5 5 7 5 4 5 5 6 7 8 9 9 8 8 9 11 11
7 6 5 5 6 6 8 10 9 13 15 12 10 9 11 11 10 11 11 10 11 10 10 9 9 9 8 7 7 8 10 8 10 13 14 14 15 16 21 26 28 29 29 28 28 27 26 25 25 24 22 21 19 17 16 16 17 17 16 15 14 13 13 11 8 7 7 5 6 7 6 6 4 5 6 6 7 7 7 8 6 6 7 6 7 7 7 9 9 9 9 10 10 9 9 11 12
9 7 7 8 8 7 8 11 12 12 13 13 12 9 12 13 11 11 11 10 11 11 11 10 9 9 8 8 8 9 10 9 11 14 15 15 15 16 17 20 23 25 27 27 28 28 27 26 26 26 24 22 20 19 19 18 17 17 18 19 17 15 15 13 10 10 9 7 8 9 8 8 8 8 11 11 11 11 9 8 6 6 6 7 9 8 8 9 10 10 10 10 11 11 12 14 16
12 8 8 9 9 8 9 11 12 13 11 10 13 9 11 14 11 11 12 12 11 11 12 11 11 10 8 9 10 10 10 9 11 12 13 15 16 16 14 15 19 22 24 25 27 27 26 26 25 25 24 22 21 19 20 20 17 16 17 19 18 16 15 14 12 11 10 9 10 13 14 13 11 12 14 13 11 10 9 9 8 7 7 8 9 8 9 11 12 12 12 12 12 12 12 16 19
11 7 6 6 9 8 10 14 11 12 9 9 15 10 9 12 11 10 11 11 10 10 13 13 14 12 10 10 10 11 11 9 9 9 11 14 15 15 14 14 16 18 21 24 26 26 24 24 23 22 22 22 21 19 20 20 17 15 14 16 17 17 15 15 15 14 13 13 14 16 17 16 14 14 13 11 9 10 11 11 10 9 9 8 8 8 10 11 12 12 13 14 13 12 12 14 18
9 7 6 4 8 9 8 12 11 11 10 10 14 7 7 9 8 7 7 8 9 9 12 12 12 12 11 11 10 12 13 11 9 8 8 11 13 14 14 15 15 16 20 22 24 25 24 23 23 22 22 21 20 19 19 20 19 16 14 14 15 16 16 16 17 17 16 17 17 16 16 14 14 13 11 9 9 9 10 11 11 10 10 9 8 8 9 11 12 12 13 14 13 13 13 13 15
9 10 8 6 8 10 10 10 8 10 10 10 13 6 4 8 8 7 5 7 8 9 11 11 10 11 12 12 10 10 12 11 11 10 8 9 11 13 15 17 15 16 19 20 22 25 24 24 23 21 21 20 20 19 19 20 21 19 18 16 15 17 17 18 19 19 18 18 17 15 12 11 11 11 10 10 10 9 8 9 10 10 10 9 8 9 10 11 12 12 12 12 13 13 12 12 13
8 11 11 11 12 8 11 12 5 8 7 7 13 7 1 5 9 10 7 8 8 8 11 12 11 12 11 11 10 8 9 9 10 11 10 10 11 13 15 17 16 17 19 19 20 22 23 24 23 21 21 20 20 19 20 21 22 23 22 21 21 20 19 19 20 20 18 17 16 14 11 9 9 9 10 10 10 10 9 7 8 9 10 10 9 9 9 11 12 13 13 12 12 12 12 12 14
7 9 10 14 16 12 12 13 6 6 6 6 9 8 2 4 6 10 10 11 11 10 12 13 12 10 8 8 10 9 8 8 8 9 10 10 12 14 14 16 17 17 18 19 19 21 23 24 23 22 21 20 20 20 21 21 21 22 22 22 23 22 21 19 19 20 18 16 14 12 10 8 8 9 10 10 10 11 10 9 8 8 10 11 10 9 9 10 12 13 13 12 12 12 12 14 16
7 9 10 13 14 14 15 10 5 5 5 5 6 9 6 4 5 8 12 13 11 11 13 13 13 11 8 8 9 9 9 9 9 9 9 10 13 15 15 16 17 18 19 19 20 22 24 24 22 21 21 19 19 19 19 20 21 21 21 22 22 22 23 21 20 20 18 15 13 11 10 9 8 8 8 8 9 10 10 10 9 9 10 11 11 11 10 10 11 12 12 12 12 13 14 15 16
9 10 12 11 12 14 13 7 4 6 6 5 7 8 7 4 5 7 11 12 11 12 13 13 14 13 11 8 8 9 9 9 10 10 10 11 13 16 17 17 17 18 20 20 21 23 24 24 23 21 20 19 17 17 18 19 19 20 21 22 23 23 24 23 22 20 17 15 15 13 11 10 9 8 7 7 8 9 10 11 10 9 10 11 12 11 11 13 13 13 12 13 14 15 16 17 18
10 12 12 11 11 11 8 5 4 6 7 7 9 9 6 3 6 8 9 10 10 11 11 12 14 13 12 10 10 10 10 9 10 10 10 12 14 17 18 18 18 19 21 22 23 24 24 25 25 24 22 20 18 17 17 17 17 18 19 21 23 23 22 22 20 18 17 17 17 15 12 10 9 8 6 6 6 8 11 12 12 12 12 13 13 12 13 15 14 12 12 13 14 17 17 17 18
10 11 11 10 9 5 2 3 3 3 4 7 9 11 7 4 6 8 9 12 13 13 12 12 13 14 12 11 11 12 11 9 10 10 11 14 17 18 19 19 20 21 21 23 23 23 24 24 26 25 24 22 21 19 19 19 18 19 20 21 23 22 20 19 18 18 17 16 17 15 13 11 10 8 8 9 10 11 12 12 12 13 13 13 13 12 14 16 15 12 12 13 15 17 17 17 18
9 10 8 7 5 2 2 2 1 2 5 5 8 9 8 5 6 9 10 13 17 17 16 17 16 15 12 10 11 12 12 11 11 10 11 14 16 17 20 21 22 22 22 23 22 23 24 25 26 27 24 23 23 22 22 21 20 20 20 21 21 20 18 18 18 17 15 15 16 14 13 12 11 10 12 15 16 14 11 11 11 12 13 13 13 13 13 15 16 14 14 16 18 19 18 18 19
9 9 6 5 2 2 3 3 1 4 4 6 10 8 6 4 8 15 12 10 16 16 17 20 19 15 12 11 11 10 11 12 11 10 11 12 13 16 20 21 22 22 22 22 22 22 24 25 25 26 24 22 22 22 22 21 20 20 19 19 19 19 19 19 18 17 16 16 16 14 12 11 11 13 15 16 15 12 11 12 12 13 14 14 14 14 14 15 16 16 17 18 19 19 19 19 19
12 9 5 5 5 4 5 3 2 2 4 5 8 4 4 3 8 18 17 13 17 18 18 20 19 18 16 13 12 11 12 12 11 11 11 10 13 17 20 20 20 21 22 21 21 22 24 24 25 26 25 22 22 22 22 21 20 19 18 19 19 19 20 19 18 18 17 17 15 14 13 12 13 15 15 14 13 11 12 13 13 14 15 15 15 15 15 15 15 16 17 18 19 18 18 19 19
11 9 5 4 4 5 4 2 4 3 2 1 3 3 4 4 6 17 20 16 17 19 18 18 18 18 16 13 13 13 13 12 11 11 11 11 16 19 20 20 20 21 21 21 21 23 23 24 24 25 25 23 22 22 22 22 21 19 19 18 18 18 19 19 18 17 16 16 16 14 13 13 14 14 13 13 13 13 13 14 14 14 15 16 15 15 15 15 16 16 17 18 18 17 18 20 19
8 6 5 5 4 5 4 3 5 6 3 1 0 1 3 3 4 13 18 15 17 18 17 17 16 16 15 14 14 14 12 12 12 12 11 13 17 20 20 20 20 20 21 21 22 23 23 23 24 24 24 22 22 22 22 22 21 20 19 18 17 16 17 17 16 15 14 14 13 13 14 14 14 13 11 11 12 13 14 14 14 15 16 16 16 15 15 15 16 17 18 19 18 18 18 19 19
6 5 5 6 5 5 5 1 0 5 4 3 1 1 1 2 2 6 15 17 17 18 18 18 17 16 16 15 14 13 12 13 13 12 11 13 17 19 20 20 21 20 21 22 22 23 23 24 23 23 23 22 21 20 20 20 20 20 19 18 16 15 14 14 14 14 13 12 11 13 14 14 13 13 12 12 13 13 14 14 15 15 16 17 16 16 16 16 16 17 18 19 18 17 19 20 20
5 5 5 5 5 4 4 2 1 4 3 4 2 5 3 5 1 2 10 17 16 16 18 18 17 16 15 14 14 14 14 14 14 13 12 14 17 19 19 20 21 22 22 22 23 24 24 23 23 22 22 21 20 19 19 19 19 19 19 18 16 15 14 13 12 12 12 12 13 13 13 13 13 14 13 13 13 14 15 15 15 14 15 16 17 17 17 17 17 18 18 19 18 18 20 21 20
4 6 5 5 5 3 2 4 3 4 3 3 2 6 4 5 6 4 7 15 16 16 17 18 19 16 14 14 14 15 14 13 13 13 12 12 16 19 19 20 22 23 22 23 25 25 24 22 21 21 20 19 18 17 17 17 17 18 19 18 17 16 15 15 13 14 15 15 15 13 13 14 15 14 14 14 14 14 14 15 15 14 14 15 16 17 18 18 18 18 18 19 19 19 21 21 21
6 6 6 5 5 3 3 4 4 4 4 3 2 4 3 4 9 12 13 16 18 18 17 18 19 17 14 14 14 14 14 13 12 13 11 12 16 19 21 22 23 23 24 25 26 26 25 23 21 21 20 19 18 17 17 17 16 18 19 18 16 15 15 15 16 17 18 17 16 15 16 16 15 14 14 14 14 14 14 13 14 14 14 15 16 17 18 19 19 19 19 20 19 19 21 22 21
5 5 5 5 4 4 3 2 3 5 5 4 3 2 4 4 7 16 18 19 20 20 18 16 16 16 15 15 16 15 14 14 13 13 12 12 17 21 22 23 23 23 25 25 26 26 25 23 22 22 21 20 20 20 20 20 19 20 20 18 17 17 16 17 17 17 18 18 17 17 16 16 16 16 15 14 14 14 13 12 12 12 13 14 15 17 18 19 19 19 18 19 19 19 21 21 21
5 3 3 5 5 5 3 1 2 4 3 5 4 2 5 4 3 14 19 19 19 21 20 16 15 17 16 15 16 16 15 14 14 14 12 13 18 20 22 23 23 23 25 25 26 26 25 24 24 22 22 22 21 22 22 22 21 21 20 20 19 19 19 18 18 18 19 19 18 17 17 17 17 16 16 16 15 14 13 12 13 13 12 13 14 16 17 18 19 18 18 18 18 19 20 20 20
Wind_Direction
318 318 323 326 325 329 321 333 31 299 225 264 263 275 274 258 265 277 290 316 350 8 35 60 64 82 98 102 106 93 72 114 166 152 162 122 121 135 147 145 146 144 141 141 143 142 140 139 137 139 140 138 138 139 139 139 140 140 138 136 134 135 134 129 123 116 115 111 105 103 103 104 105 109 112 113 114 114 113 110 107 104 101 96 92 90 89 88 81 74 72 71 72 74 75 80 91
319 319 325 328 322 326 317 50 28 295 338 292 273 262 269 278 280 282 297 14 59 336 6 38 75 93 105 112 108 85 55 40 107 110 100 113 115 131 142 146 148 144 141 142 145 145 143 142 141 143 142 141 140 140 141 141 141 142 140 139 138 138 135 130 125 119 117 112 107 106 106 106 107 110 113 115 117 116 113 110 108 105 103 99 96 93 91 88 81 75 71 69 71 70 68 73 91
320 322 328 338 331 197 251 11 148 268 299 269 274 273 276 286 274 282 305 106 100 56 20 39 68 95 109 100 83 90 99 75 104 104 116 123 119 133 143 147 147 143 141 142 146 147 146 144 144 145 144 142 141 140 140 142 142 143 142 141 140 137 134 132 126 122 120 114 109 108 109 108 110 111 112 116 118 116 114 113 110 107 105 102 100 96 91 88 82 76 70 66 66 66 64 72 97
317 324 326 343 352 211 42 4 191 238 250 248 266 268 274 275 272 282 179 180 117 92 60 66 58 40 91 96 89 99 123 134 122 118 126 132 134 142 145 145 142 140 140 143 146 146 147 146 147 146 145 143 141 141 141 142 143 143 142 141 140 136 134 131 127 125 122 116 112 112 111 109 111 112 114 116 117 116 115 114 112 109 107 105 103 100 96 90 83 79 77 72 65 67 63 75 104
307 317 312 319 353 321 80 228 238 233 227 244 261 265 272 271 284 299 295 284 18 88 107 110 95 52 79 97 114 110 131 133 130 116 110 127 137 143 143 142 139 137 140 145 146 145 147 147 148 147 145 144 143 143 142 143 143 142 141 140 139 135 134 131 129 127 121 117 116 115 113 111 111 113 115 117 117 116 115 114 112 111 110 111 109 103 98 94 90 87 85 80 74 75 72 85 111
299 319 304 255 243 305 179 250 257 257 240 241 265 274 281 287 296 301 298 288 209 136 102 98 111 105 79 70 63 119 151 129 123 118 117 131 139 142 142 139 137 137 143 146 145 144 146 149 149 148 146 145 145 144 144 143 141 140 139 138 136 135 134 133 131 126 120 118 118 117 114 112 112 112 114 116 117 116 116 117 115 113 113 112 105 96 96 96 92 87 83 79 76 79 83 97 117
293 323 308 201 290 293 192 235 232 254 244 237 261 268 275 288 292 297 297 287 245 160 95 106 116 106 89 102 54 99 142 129 123 129 130 137 140 139 140 138 137 140 145 146 144 143 146 149 149 147 146 145 144 143 143 141 139 137 137 135 135 136 136 135 131 124 120 120 119 118 116 113 112 111 112 115 117 117 119 121 119 116 113 108 97 96 100 98 92 87 84 83 80 80 90 107 123
269 278 310 96 302 241 194 234 232 240 245 244 251 258 262 269 276 287 286 285 292 263 112 118 114 94 74 101 70 66 121 126 125 131 134 137 139 139 140 139 138 141 145 146 142 141 145 149 148 146 144 143 142 140 139 137 136 135 135 135 136 137 137 134 128 124 122 122 121 119 116 114 114 114 115 116 116 119 121 125 126 123 122 119 110 107 105 100 95 90 88 87 83 83 97 116 128
248 217 282 85 225 264 235 240 242 239 252 256 255 257 257 255 261 266 268 285 352 287 9 102 105 100 97 89 92 77 106 123 126 131 136 137 140 140 140 140 139 141 144 145 141 141 146 149 148 145 143 142 141 139 137 136 135 134 134 135 138 138 136 133 128 126 124 123 122 120 118 117 118 117 116 114 116 120 124 132 135 137 140 134 121 115 111 105 98 93 92 91 87 85 100 122 132
231 191 217 223 208 263 255 253 255 250 256 256 261 258 258 256 253 252 253 266 214 331 21 89 96 111 116 95 100 102 116 126 126 132 140 141 141 139 138 140 142 143 144 144 142 142 144 146 147 145 144 143 141 140 138 136 134 133 133 136 138 138 135 134 132 128 126 126 124 122 122 120 118 114 110 109 113 117 123 132 136 137 143 140 129 125 119 112 103 94 94 95 92 87 101 124 137
205 204 188 223 221 237 237 248 251 253 257 258 262 257 261 260 254 254 241 241 234 99 78 95 100 114 110 100 97 124 129 131 132 136 142 141 138 137 138 141 146 147 145 144 142 141 141 144 146 145 145 144 143 142 139 135 132 134 135 137 137 137 137 136 133 130 129 128 127 126 123 119 114 109 105 103 105 107 114 121 131 136 142 143 133 129 126 120 108 97 95 96 95 89 97 122 141
201 218 170 215 211 218 229 235 249 256 254 255 259 258 257 254 256 249 194 196 202 63 62 123 129 120 101 112 130 138 137 138 140 136 136 136 134 136 138 141 145 147 147 145 142 142 142 144 146 145 147 146 144 143 140 135 134 137 137 137 138 139 140 136 134 133 132 129 128 125 121 117 113 109 101 97 97 95 99 108 127 138 144 142 132 132 132 128 114 102 97 96 95 90 92 114 141
202 213 178 214 203 213 238 237 254 262 258 253 254 261 257 256 257 219 157 163 126 63 63 123 132 111 101 132 130 150 146 146 143 133 132 132 132 134 137 141 144 147 147 147 144 143 143 146 147 146 147 146 145 144 141 137 137 138 138 139 139 139 139 136 135 135 132 129 126 123 118 116 113 106 99 94 87 81 82 87 108 130 143 140 134 137 137 133 121 109 102 97 95 91 90 102 133
205 218 191 224 210 209 232 239 248 252 258 255 253 261 261 273 268 147 126 132 126 153 120 124 129 101 107 133 135 180 154 150 143 133 133 131 131 133 136 142 145 147 146 147 145 143 145 148 147 147 149 147 145 144 141 138 139 140 140 141 140 141 139 137 136 132 130 128 125 123 121 117 113 106 99 89 78 74 72 68 78 109 137 140 137 142 143 138 128 117 107 102 99 93 92 94 118
208 223 222 240 239 222 222 224 233 240 250 249 250 244 241 319 96 85 116 134 110 170 96 127 134 108 152 163 165 187 157 151 143 135 136 131 132 136 140 144 145 145 144 145 143 142 144 147 148 149 152 150 146 145 143 142 142 142 141 141 142 142 139 136 134 131 131 130 129 127 123 118 115 109 96 82 75 75 71 62 62 82 121 138 141 146 147 142 134 126 114 106 103 98 100 94 105
201 211 238 240 241 240 227 227 232 237 244 243 247 214 188 252 130 91 143 110 25 348 38 144 157 130 169 173 163 162 154 151 145 138 136 131 132 137 141 143 143 143 143 142 140 141 143 146 149 151 153 153 150 148 147 145 143 142 142 142 143 141 138 136 133 134 135 133 132 128 124 122 118 110 95 84 77 72 69 62 59 66 97 129 141 148 150 147 140 133 123 113 108 107 110 107 113
193 205 234 239 233 236 228 237 241 235 251 254 263 227 192 241 167 144 125 100 69 22 50 116 133 127 158 159 149 150 150 150 147 139 133 132 132 134 139 142 143 143 144 142 140 142 145 146 147 151 154 154 152 152 148 145 143 143 143 143 143 142 139 138 138 139 138 135 132 128 126 126 122 108 94 84 76 68 66 65 64 67 82 110 134 147 151 150 145 142 137 127 118 118 121 128 130
203 195 219 233 226 231 225 236 252 251 267 271 302 298 182 270 226 126 99 114 136 71 64 78 66 91 123 125 139 146 146 147 148 142 136 137 136 138 144 147 147 145 148 145 144 148 146 144 144 148 151 151 152 152 149 145 144 146 145 145 145 144 143 146 147 144 140 136 131 130 128 128 131 112 91 80 74 67 68 72 74 75 80 94 115 133 147 152 150 151 148 147 143 130 134 161 156
218 195 209 228 220 237 241 244 255 256 272 275 345 10 28 355 333 39 44 130 150 109 78 80 85 94 107 121 138 143 143 144 149 146 142 143 141 145 149 150 149 149 154 148 149 154 146 143 146 147 146 146 150 150 150 148 148 149 149 148 147 148 151 152 148 144 141 136 133 133 129 128 134 105 85 79 64 59 66 78 79 77 77 83 95 105 116 135 155 165 165 182 211 246 214 197 188
223 210 218 224 217 240 251 250 259 261 268 273 87 51 28 7 334 4 16 337 201 132 124 112 112 119 122 131 139 138 140 143 148 148 147 148 144 148 150 150 151 155 158 150 151 153 147 147 148 147 145 145 147 150 152 150 150 153 153 151 150 152 153 152 146 143 140 134 136 139 135 134 135 106 114 153 47 51 55 73 78 75 76 79 83 85 86 91 105 129 126 27 307 280 266 243 221
217 219 226 219 209 228 245 253 265 265 267 275 143 145 119 44 328 326 340 324 334 122 155 148 139 140 136 136 139 140 142 142 148 151 151 148 145 150 151 152 156 157 155 150 150 152 152 151 149 148 147 145 148 154 152 148 151 155 157 155 154 153 152 152 146 145 145 135 135 141 141 142 145 133 151 190 85 55 39 45 66 64 66 71 73 67 67 70 66 69 60 33 11 339 305 308 278
231 233 229 229 227 227 235 243 252 257 268 284 250 192 158 116 306 291 20 30 336 307 177 143 138 143 144 145 145 145 146 147 154 156 155 151 150 151 149 153 158 156 154 150 148 151 153 151 147 145 146 149 153 152 147 145 149 152 155 156 156 155 156 157 154 156 159 147 139 141 144 161 183 179 168 196 229 27 348 1 4 351 353 353 14 21 12 9 10 5 335 333 353 345 323 317 308
228 243 230 224 234 247 252 247 252 266 287 292 276 251 124 98 307 9 60 54 356 354 96 106 99 99 112 140 146 150 153 152 146 128 115 124 120 119 131 148 154 150 147 144 146 147 147 146 144 143 144 150 149 145 147 151 153 150 147 153 155 156 163 165 163 165 167 162 156 149 148 178 200 190 179 193 206 209 245 318 333 338 344 332 312 313 324 310 295 313 320 314 312 314 313 311 307
221 237 236 221 222 237 254 261 267 278 285 285 17 5 35 69 326 67 75 71 56 50 90 104 102 94 70 52 78 118 124 107 89 65 47 41 49 62 67 64 115 127 128 134 139 137 138 143 146 145 141 139 140 142 149 157 164 161 150 152 154 156 166 169 166 162 164 167 170 167 164 191 194 179 179 180 180 184 205 234 268 344 14 6 338 325 328 314 291 300 319 315 302 302 303 299 296
223 228 233 226 223 226 239 253 261 267 270 272 13 8 6 14 328 69 86 100 86 72 86 97 106 110 105 85 57 38 55 65 69 64 56 52 65 80 70 61 76 74 86 113 118 124 137 147 150 150 144 139 142 145 149 159 169 168 159 160 165 170 169 170 169 159 159 163 167 175 181 203 193 188 196 192 192 198 207 221 226 227 225 221 255 298 292 272 260 270 290 296 289 290 291 290 294
218 225 230 226 230 235 241 246 247 254 252 228 7 355 318 291 344 62 88 107 98 89 90 98 105 107 113 114 106 101 91 84 89 93 99 102 101 95 85 89 89 69 70 85 101 121 138 139 138 144 147 146 148 151 151 159 162 157 159 164 172 182 174 170 171 161 161 168 170 180 187 198 196 201 205 200 211 221 221 228 228 227 234 239 243 261 278 279 271 274 286 293 292 291 293 294 302
216 221 228 228 229 238 250 255 247 248 224 156 146 218 272 264 237 101 115 117 103 95 95 106 108 107 113 111 115 120 119 118 119 121 117 105 97 92 92 101 108 102 99 98 100 115 128 129 126 131 141 146 148 149 141 141 148 154 164 164 154 163 164 161 165 163 165 174 176 183 192 196 200 204 198 205 223 230 235 239 236 236 250 268 270 276 292 295 288 295 302 306 306 303 304 304 308
237 228 225 226 229 234 244 254 252 249 221 162 147 170 239 245 204 146 146 143 112 105 106 109 106 111 115 107 105 95 100 112 117 120 114 107 109 110 109 113 120 119 114 113 109 109 123 133 127 128 137 141 142 142 135 135 145 157 168 163 139 144 152 153 158 160 163 173 177 185 197 196 197 198 194 217 228 230 242 247 249 245 260 289 296 299 306 305 302 309 312 312 315 315 313 311 313
248 244 231 221 223 230 234 245 250 244 213 155 130 155 254 237 142 131 139 148 115 112 116 116 115 120 118 113 109 96 109 111 109 118 125 127 126 119 116 119 124 122 119 123 125 125 133 141 136 138 142 142 143 144 145 143 146 151 160 160 144 143 151 152 154 159 170 179 181 190 196 191 190 196 212 233 237 242 243 238 241 248 277 308 316 303 297 302 304 307 311 315 317 319 320 319 320
249 247 246 224 219 228 224 231 245 238 188 145 127 174 250 171 134 138 140 138 118 116 124 124 122 121 119 118 110 107 117 118 125 136 134 128 124 121 119 123 127 127 127 132 138 139 142 149 148 146 147 147 148 152 156 150 144 147 156 159 149 143 144 151 161 166 179 184 185 189 184 182 188 200 235 242 251 262 254 232 224 273 299 303 298 289 290 300 307 310 315 320 320 320 323 328 328
241 242 245 219 212 228 213 213 232 233 191 163 148 190 234 141 135 145 145 145 129 123 134 128 124 121 118 119 116 115 114 119 134 138 133 126 125 125 125 129 132 133 137 141 141 140 141 147 145 137 142 148 151 159 164 156 149 149 157 160 157 158 157 159 171 172 178 181 186 191 179 179 183 189 231 246 263 259 257 259 295 324 305 294 286 287 302 314 323 329 330 327 324 322 320 324 330
220 224 232 211 204 220 204 204 214 219 191 175 177 192 183 130 141 149 147 149 130 126 134 125 121 122 119 119 117 112 108 97 92 108 123 127 130 132 133 135 138 142 144 144 143 142 143 147 147 141 145 155 157 161 161 155 153 155 163 168 164 163 164 166 168 170 175 175 180 187 180 186 189 170 229 265 266 238 262 291 289 285 296 308 300 301 313 323 332 335 337 332 328 325 321 322 326
221 204 207 206 199 199 209 215 209 204 191 182 193 193 131 140 150 143 143 142 127 124 125 121 121 117 116 116 114 110 106 90 76 88 114 130 135 136 138 141 144 147 147 147 150 150 151 155 160 160 160 165 160 157 158 154 150 154 166 172 158 143 150 160 159 162 170 171 176 181 180 187 126 54 40 316 258 267 307 327 279 254 298 328 314 315 313 320 327 322 321 328 335 332 327 328 329
229 201 191 212 200 182 203 241 215 191 189 196 199 197 146 153 152 137 142 140 126 126 125 122 119 112 114 115 115 115 110 102 90 96 112 132 137 137 140 144 147 149 148 150 153 153 155 160 165 162 162 167 162 157 157 149 147 152 162 168 154 138 143 149 151 155 155 158 162 147 111 75 70 65 61 58 5 337 358 39 17 14 23 347 330 336 322 316 320 320 324 328 341 341 332 329 330
209 192 182 213 211 194 197 223 222 186 189 200 197 191 144 139 146 138 142 140 126 128 129 123 117 114 119 119 119 117 109 105 99 101 113 130 136 135 138 142 148 149 148 150 151 152 154 157 160 156 159 168 163 156 151 144 146 150 155 157 147 138 138 135 140 141 129 127 117 98 88 86 88 80 72 60 41 44 71 53 28 31 29 8 359 359 349 343 337 333 335 336 340 341 338 335 334
211 194 188 201 212 219 203 209 218 188 186 199 196 179 151 147 153 145 143 137 127 127 127 122 119 117 121 123 120 113 105 101 103 109 119 129 136 136 134 139 144 146 148 150 152 154 153 153 154 154 163 169 159 153 153 151 149 146 148 149 141 137 136 132 127 116 104 100 97 90 82 77 71 73 75 60 50 54 51 39 35 40 34 28 23 14 9 5 359 354 352 352 352 351 358 360 350
231 205 199 205 212 230 213 212 217 190 181 198 199 176 156 157 156 148 141 132 130 134 133 128 126 125 127 128 118 106 101 104 108 114 125 130 134 138 137 138 139 141 148 150 148 151 154 154 152 154 164 165 156 152 156 159 156 152 150 146 140 139 139 133 121 111 107 102 90 83 78 68 62 75 81 72 63 65 64 58 63 60 46 45 41 33 34 30 22 19 15 16 16 13 17 18 7
243 222 203 202 206 230 230 226 219 188 176 189 197 189 161 157 152 148 142 136 142 144 137 131 128 130 131 127 118 107 105 111 112 114 123 124 128 136 137 137 138 142 147 146 143 144 148 151 151 156 162 162 160 156 153 156 158 160 155 144 140 139 135 127 118 112 108 103 90 83 79 70 67 73 77 77 77 85 88 79 71 64 61 64 65 62 59 50 37 32 28 27 29 28 30 26 21
247 236 219 204 195 215 236 243 234 189 170 180 196 196 154 151 147 146 142 136 146 145 138 136 136 138 135 127 120 114 117 121 121 117 117 118 125 135 136 135 138 142 145 141 140 142 143 148 152 156 160 162 164 158 149 148 150 160 158 143 137 135 129 120 116 114 107 100 92 86 82 79 81 79 77 83 91 95 91 80 71 68 69 71 75 72 66 57 43 37 35 30 27 27 32 28 27
246 234 232 233 201 194 212 246 241 189 169 171 183 171 122 138 128 131 135 125 132 130 127 132 136 135 125 120 118 121 127 130 128 122 119 120 123 131 138 141 138 138 142 141 142 144 144 149 155 157 160 162 162 154 147 145 144 151 153 143 136 129 123 119 117 114 105 98 91 89 87 88 92 89 88 91 87 88 88 83 77 75 75 69 68 66 58 52 42 36 34 31 30 27 25 21 24
242 234 228 240 230 202 192 234 234 177 177 164 150 109 100 152 138 138 138 115 122 119 116 115 114 115 110 111 114 122 133 138 139 137 139 135 129 133 140 145 141 137 145 149 149 148 147 151 156 158 158 157 157 153 149 147 144 145 147 142 133 123 121 124 122 114 105 101 97 95 95 94 96 96 96 93 83 79 80 81 79 75 72 61 56 56 51 47 42 37 31 29 35 34 27 21 20
245 238 227 235 250 234 202 218 193 148 198 178 137 114 271 189 151 152 149 127 134 128 119 114 107 107 108 116 123 130 137 139 141 141 144 142 135 138 144 149 146 142 151 157 154 151 149 151 155 158 158 156 156 155 154 153 150 150 151 146 137 130 126 127 123 115 111 111 106 104 105 103 103 101 99 97 89 81 74 73 76 71 63 53 46 45 47 47 44 42 35 30 34 37 35 31 23
240 232 225 233 247 260 242 225 177 150 206 194 145 128 172 226 174 166 157 143 146 138 123 119 112 107 115 135 142 144 143 139 136 135 137 139 141 146 151 154 150 146 154 159 156 151 148 149 152 154 155 155 155 153 154 155 152 153 153 146 139 134 127 120 116 114 117 120 116 114 114 109 105 101 99 100 94 86 80 75 77 76 68 59 49 41 43 46 45 41 37 36 36 35 39 40 31
236 233 227 232 237 249 259 246 192 170 178 191 170 127 126 208 205 176 158 143 143 140 129 122 118 124 142 154 149 145 145 144 141 136 137 144 150 152 155 156 153 150 153 154 150 147 146 146 147 149 150 152 151 147 150 153 150 150 148 138 129 124 119 116 117 120 124 125 119 116 115 109 105 102 99 99 93 85 78 72 72 74 72 65 54 47 49 51 48 39 35 39 38 38 42 43 40
229 239 234 238 237 238 253 263 213 165 150 200 203 141 131 184 190 173 155 147 151 147 137 129 128 142 157 158 149 145 142 142 139 137 142 148 150 148 149 150 147 147 149 146 142 139 138 135 134 136 141 147 146 138 141 147 146 146 143 131 120 116 117 120 125 127 126 123 117 113 112 106 101 99 94 91 87 78 68 63 61 61 65 62 52 54 60 58 53 46 42 42 43 48 47 43 44
215 235 242 242 241 239 242 242 213 159 157 201 203 167 139 156 181 171 154 160 166 149 138 135 140 156 166 163 159 150 140 136 133 134 139 140 139 140 140 138 136 140 143 140 136 133 131 128 124 123 127 132 132 128 129 133 136 137 134 127 123 122 123 125 125 121 118 119 119 115 110 102 95 88 79 74 74 69 63 60 59 59 63 61 52 56 62 56 54 49 44 50 52 52 51 47 47
202 226 246 245 239 255 258 213 172 153 197 211 193 178 160 157 193 180 170 178 169 147 141 144 151 165 170 164 158 147 139 134 131 133 133 130 132 136 135 130 131 135 137 135 134 132 129 125 120 116 119 123 121 121 123 126 130 131 128 125 124 124 125 123 118 114 115 119 118 113 105 96 87 73 63 68 71 69 66 64 63 61 64 62 55 57 59 55 52 45 47 59 58 54 56 55 51
208 218 232 238 243 296 311 307 96 172 246 230 186 184 179 174 198 199 196 179 160 150 150 153 161 169 166 159 154 146 140 135 135 138 134 131 134 138 134 131 133 136 136 136 135 132 128 124 120 115 116 120 119 119 120 121 123 123 123 121 118 118 118 114 111 110 113 115 111 106 100 92 79 70 71 73 71 66 63 63 61 60 60 60 59 59 59 56 50 48 60 63 55 55 59 56 51
220 219 207 203 194 199 233 258 197 200 253 212 176 188 210 192 183 191 195 171 156 152 152 156 160 163 161 160 155 147 140 137 141 143 140 140 142 142 139 137 140 141 141 140 136 132 128 125 122 117 114 118 119 119 117 115 114 114 115 115 115 116 114 112 111 108 109 110 106 102 96 84 75 77 76 70 67 63 59 61 61 61 60 60 62 60 59 57 49 52 63 59 53 56 56 53 53
216 214 179 172 162 171 213 216 163 207 277 209 164 165 223 218 179 179 177 168 155 149 153 158 158 159 162 162 153 146 144 141 144 146 144 145 144 144 144 142 144 146 145 142 136 130 126 124 123 118 115 118 119 118 116 113 111 112 114 114 114 115 114 113 110 108 109 106 102 99 88 78 84 84 71 64 69 65 60 63 64 65 65 62 62 61 62 61 55 55 61 59 55 56 56 56 56
215 212 165 183 179 160 191 180 155 181 272 236 119 94 192 210 194 175 170 166 151 146 155 156 155 159 158 153 149 147 148 145 145 148 146 145 146 146 145 143 145 146 144 140 132 128 124 121 122 119 116 118 118 118 117 114 113 115 116 114 112 113 114 113 110 109 109 103 100 96 84 81 89 83 68 67 74 68 64 66 66 69 68 64 62 63 65 64 60 59 61 60 59 57 58 57 54
214 209 178 221 216 144 147 170 169 154 127 254 147 111 217 220 179 159 156 156 147 142 147 146 151 157 148 146 152 150 151 149 147 149 146 144 146 146 143 142 143 142 139 134 130 127 124 121 120 118 116 118 118 118 117 115 115 116 115 113 112 112 114 113 110 108 107 104 99 93 90 92 91 83 76 78 77 72 71 67 66 71 71 65 63 65 66 65 63 62 61 61 60 58 58 56 53
200 202 195 221 210 140 121 169 231 98 115 243 218 110 342 39 63 125 135 142 143 138 141 146 152 153 146 150 155 152 152 151 148 150 148 145 146 145 143 142 142 140 135 131 128 128 125 122 120 118 117 119 119 120 118 117 117 116 116 113 111 112 115 115 115 114 111 106 97 95 99 99 93 88 87 85 83 79 75 69 66 72 72 69 67 67 66 66 65 64 63 62 60 58 59 57 54
180 194 212 220 204 170 120 124 337 77 124 256 196 153 150 110 63 326 118 131 140 140 141 147 152 152 150 152 153 152 151 148 146 147 146 145 145 145 144 143 143 140 135 129 127 127 127 125 123 120 119 120 121 122 120 119 119 117 116 115 112 113 115 115 116 117 116 112 108 107 106 100 95 96 94 90 89 84 79 75 71 73 75 73 73 71 68 66 65 66 65 63 61 59 60 58 55
204 179 194 194 175 199 165 144 166 134 146 281 200 164 166 136 164 211 139 135 142 144 144 150 157 156 153 151 150 149 147 146 146 147 147 147 147 147 144 143 142 139 135 130 127 129 129 128 126 123 122 123 125 126 123 122 121 118 119 118 116 115 114 114 115 118 121 121 120 118 111 104 102 103 99 94 91 87 83 80 76 76 78 78 78 77 72 67 64 65 64 62 61 60 60 59 55
241 191 190 187 149 165 182 161 159 145 156 247 226 171 205 188 166 163 156 148 147 150 153 158 161 157 154 154 152 150 151 151 150 148 149 149 147 146 143 141 140 138 136 133 131 132 131 131 130 128 128 128 128 129 128 126 124 123 123 122 121 120 120 122 125 128 126 120 116 115 111 107 104 102 99 95 91 87 84 82 79 79 82 82 83 81 76 71 66 63 62 61 60 60 60 58 53
226 200 193 198 166 151 171 180 164 145 151 181 191 207 235 228 166 155 155 154 154 156 157 159 159 155 156 157 154 154 154 152 151 148 148 147 145 144 142 140 137 135 136 136 133 133 134 135 136 133 132 131 130 130 131 130 130 130 130 129 129 132 133 132 132 131 127 118 114 113 112 109 105 100 98 95 91 87 84 83 81 81 85 87 88 86 80 74 69 63 60 59 58 58 59 58 53
206 186 191 185 161 135 138 245 205 148 149 163 154 209 263 280 164 154 156 158 159 155 151 153 156 155 158 158 155 155 153 151 150 147 145 145 145 144 141 140 138 136 138 138 135 135 136 136 138 136 133 131 131 131 131 133 135 135 136 137 136 137 137 133 129 125 121 117 114 113 112 110 107 102 100 96 92 87 83 81 78 77 85 92 93 91 83 75 72 67 60 59 60 59 57 56 54